Location: Monroe
(41.9160°N, 83.3980°W)
Time: 00:40:00
(UTC-05:00)

ISS - Visible Passes

Search period start: 12 February 2016 00:00
Search period end: 22 February 2016 00:00
Orbit: 398 x 408 km, 51.6° (Epoch: 11 February)

Date Brightness Start Highest point End Pass type
(mag) Time Alt. Az. Time Alt. Az. Time Alt. Az.
12 Feb -1.1 18:31:54 10° NW 18:33:50 15° N 18:35:47 10° NE visible
12 Feb -0.8 20:08:24 10° NW 20:09:22 16° NNW 20:09:22 16° NNW visible
13 Feb -1.5 19:15:46 10° NNW 19:18:10 19° NNE 19:18:51 18° NNE visible
14 Feb -1.7 19:59:08 10° NW 20:01:00 27° NNW 20:01:00 27° NNW visible
15 Feb -2.1 19:06:28 10° NW 19:09:17 27° NNE 19:10:33 20° ENE visible
15 Feb 0.0 20:42:43 10° WNW 20:43:11 13° WNW 20:43:11 13° WNW visible
16 Feb -3.3 19:49:48 10° NW 19:52:48 73° NW 19:52:48 73° NW visible
17 Feb -2.9 18:57:00 10° NW 19:00:09 46° NNE 19:02:31 16° E visible
17 Feb -0.5 20:33:52 10° W 20:35:10 17° WSW 20:35:10 17° WSW visible
18 Feb -2.2 19:40:34 10° WNW 19:43:39 40° SW 19:45:00 25° SSE visible
19 Feb -3.3 18:47:31 10° WNW 18:50:46 82° SW 18:54:00 10° SE visible
20 Feb -0.6 19:31:40 10° W 19:33:57 18° SW 19:36:13 10° S visible
21 Feb -1.6 18:38:09 10° WNW 18:41:07 34° SW 18:44:05 10° SSE visible
